This is the latest recevied weather packets stored in our database for station/object DL9GRB-13. If no packets are shown the sender has not sent any weather packets the latest 10 day(s).
| Time | Temp. | Humidity | Pressure | Rain* | Wind** | Luminosity | Snow |
|---|---|---|---|---|---|---|---|
| 1778144829 | 12.78° C | 63% | 1014.9 hPa | 0 mm | - | 640 W/m² | - |
| 1778144648 | 12.78° C | 63% | 1014.9 hPa | 0 mm | - | 633 W/m² | - |
| 1778144468 | 13.33° C | 62% | 1014.6 hPa | 0 mm | - | 629 W/m² | - |
| 1778144289 | 12.78° C | 65% | 1014.6 hPa | 0 mm | - | 624 W/m² | - |
| 1778144108 | 12.78° C | 64% | 1014.7 hPa | 0 mm | - | 620 W/m² | - |
| 1778143928 | 12.78° C | 62% | 1014.7 hPa | 0 mm | - | 637 W/m² | - |
| 1778143748 | 12.78° C | 63% | 1014.7 hPa | 0 mm | - | 598 W/m² | - |
| 1778143568 | 12.78° C | 64% | 1014.6 hPa | 0 mm | - | 591 W/m² | - |
| 1778143389 | 12.78° C | 65% | 1014.6 hPa | 0 mm | - | 617 W/m² | - |
| 1778143209 | 12.78° C | 63% | 1014.6 hPa | 0 mm | - | 580 W/m² | - |
| 1778143028 | 12.78° C | 63% | 1014.7 hPa | 0 mm | - | 572 W/m² | - |
| 1778142849 | 12.78° C | 65% | 1014.5 hPa | 0 mm | - | 590 W/m² | - |
| 1778142669 | 12.78° C | 64% | 1014.6 hPa | 0 mm | - | 560 W/m² | - |
| 1778142488 | 12.78° C | 63% | 1014.7 hPa | 0 mm | - | 212 W/m² | - |
| 1778142308 | 12.78° C | 64% | 1014.5 hPa | 0 mm | - | 540 W/m² | - |
| 1778142128 | 12.78° C | 64% | 1014.4 hPa | 0 mm | - | 537 W/m² | - |
| 1778141948 | 12.22° C | 65% | 1014.6 hPa | 0 mm | - | 541 W/m² | - |
| 1778141769 | 12.22° C | 66% | 1014.5 hPa | 0 mm | - | 529 W/m² | - |
| 1778141588 | 12.22° C | 65% | 1014.6 hPa | 0 mm | - | 544 W/m² | - |
| 1778141409 | 12.22° C | 65% | 1014.5 hPa | 0 mm | - | 551 W/m² | - |
| 1778141228 | 12.22° C | 64% | 1014.4 hPa | 0 mm | - | 521 W/m² | - |
| 1778141049 | 12.22° C | 66% | 1014.4 hPa | 0 mm | - | 504 W/m² | - |
| 1778140869 | 11.67° C | 67% | 1014.3 hPa | 0 mm | - | 443 W/m² | - |
| 1778140688 | 11.67° C | 68% | 1014.3 hPa | 0 mm | - | 306 W/m² | - |
| 1778140508 | 11.67° C | 67% | 1014.2 hPa | 0 mm | - | 212 W/m² | - |
* Rain latest hour (hover to see other rain measurements)
** Current wind speed in m/s (hover to see current wind gust speed)